weather.gov     
National Weather Service

Terminal Aerodrome Forecast
NWS Homepage
This page is being discontinued on March 12, 2014.
The same data is available at this site. Please update your bookmarks.
Thank you, and we apologize for the inconvenience.
Please send an email to SR-SRH.Webmaster@noaa.gov with any concerns.


Current Version
Previous Version:    01  02  03  04  05  06  07  08  09  10  11  12  13  14  15  16  17  18  19  20  21  22  23  24  25  26  27  28  29  30  
   31  32  33  34  35  36  37  38  39  40  41  42  43  44  45  
[Printable]
709
FTUS42 KTAE 161200 AAB
TAFECP
TAF AMD
KECP 161216Z 1612/1712 24004KT P6SM VCTS SCT025CB BKN050
     FM161400 23005KT 5SM -SHRA BKN025 OVC080
      TEMPO 1615/1619 VRB10G20KT 1SM +TSRA OVC015CB
     FM162200 28007KT 5SM -TSRA BKN025CB OVC090
     FM170300 33004KT P6SM SCT100 BKN250
     FM170800 01003KT P6SM SCT250=


U.S. Dept. of Commerce
NOAA National Weather Service
1325 East West Highway
Silver Spring, MD 20910
E-mail: w-nws.webmaster@noaa.gov
Page last modified: May 16, 2007
NATIONAL WEATHER SERVICE: for Safety, for Work, for Fun - FOR LIFE